Flag for Uzbekistan Weather past 2 weeks in Tashkent, Uzbekistan

Now
84 °F

Clear.


Feels Like: 83 °F
Forecast: 81 / 105 °F
Wind: No wind

Location: Tashkent

Current Time: Aug 3, 2015 at 11:13:09 PM

Latest Report: Aug 3, 2015 at 10:30 PM


Visibility: 10 mi

Pressure: 29.68 "Hg

Humidity: 40%

Dew point: 57 °F

Location of TashkentLocation

Historic Weather in Tashkent — Graph

°F

Tashkent temperature yesterday

Maximum temperature yesterday: 100 °F (at 3:30 PM)
Minimum temperature yesterday: 77 °F (at 6:00 AM)
Average temperature yesterday: 90 °F

Past Weeks' High & Low Weather Summary

 TemperatureHumidityPressure
High104 °F (Aug 3, 4:00 PM)61% (Jul 21, 3:30 AM)29.92 "Hg (Jul 21, 3:30 AM)
Low70 °F (Jul 26, 3:30 AM)8% (Jul 30, 4:00 PM)29.56 "Hg (Jul 20, 3:00 PM)
Average86 °F30%29.73 "Hg
* Reported Jul 19 9:00 PM — Aug 3 9:30 PM, Tashkent, Weather by CustomWeather, © 2015

Note: Actual official high and low records may vary slightly from our data, if they occured in-between our weather recording intervals... More about our weather records

Advertising

Tashkent weather history for previous 24 hours

 ConditionsComfort  
Time TempWeatherWind HumidityBarometerVisibility
9:30 PM
Mon, Aug 3
84 °FClear.8 mph40%29.68 "Hg10 mi
9:00 PM90 °FPassing clouds.5 mph31%29.68 "HgN/A
8:30 PM90 °FClear.7 mph29%29.68 "Hg10 mi
8:00 PM91 °FClear.7 mph28%29.68 "Hg10 mi
7:30 PM93 °FSunny.7 mph26%29.68 "Hg10 mi
7:00 PM97 °FSunny.9 mph23%29.68 "Hg10 mi
6:30 PM99 °FSunny.10 mph22%29.68 "Hg10 mi
6:00 PM100 °FSunny.12 mph16%29.68 "Hg10 mi
5:30 PM102 °FSunny.10 mph12%29.68 "Hg10 mi
5:00 PM104 °FPassing clouds.8 mph11%29.68 "HgN/A
4:30 PM104 °FPassing clouds.7 mph10%29.68 "HgN/A
4:00 PM104 °FPassing clouds.9 mph11%29.68 "HgN/A
3:30 PM102 °FPassing clouds.9 mph12%29.68 "HgN/A
3:00 PM102 °FPassing clouds.10 mph15%29.68 "HgN/A
2:30 PM102 °FPassing clouds.9 mph13%29.68 "HgN/A
2:00 PM102 °FPassing clouds.8 mph16%29.71 "HgN/A
1:30 PM100 °FPassing clouds.12 mph17%29.71 "HgN/A
1:00 PM100 °FSunny.10 mph15%29.71 "Hg10 mi
12:30 PM100 °FClear.9 mph15%29.71 "Hg4 mi
12:00 PM99 °FClear.9 mph18%29.71 "Hg4 mi
11:30 AM97 °FClear.8 mph20%29.71 "Hg4 mi
11:00 AM97 °FClear.6 mph23%29.71 "Hg4 mi
10:30 AM97 °FClear.6 mph22%29.71 "Hg4 mi
10:00 AM95 °FClear.5 mph25%29.71 "Hg4 mi
9:30 AM95 °FClear.3 mph18%29.71 "Hg4 mi
9:00 AM95 °FClear.3 mph20%29.71 "Hg4 mi
8:30 AM91 °FClear.6 mph24%29.71 "Hg4 mi
8:00 AM90 °FClear.8 mph27%29.71 "Hg4 mi
7:30 AM84 °FClear.6 mph33%29.71 "Hg4 mi
7:00 AM82 °FSunny.7 mph35%29.71 "Hg10 mi
6:30 AM79 °FSunny.7 mph39%29.71 "Hg10 mi
6:00 AM77 °FSunny.7 mph42%29.71 "Hg10 mi
5:30 AM73 °FSunny.6 mph47%29.71 "Hg10 mi
5:00 AM75 °FClear.7 mph44%29.71 "Hg10 mi
4:30 AM75 °FClear.7 mph44%29.71 "Hg10 mi
4:00 AM77 °FClear.7 mph42%29.71 "Hg10 mi
3:30 AM77 °FPassing clouds.6 mph42%29.71 "HgN/A
3:00 AM77 °FClear.6 mph44%29.71 "Hg10 mi
2:30 AM77 °FClear.7 mph44%29.71 "Hg10 mi
2:00 AM75 °FClear.9 mph47%29.71 "Hg10 mi
1:30 AM77 °FClear.7 mph51%29.71 "Hg10 mi
1:00 AM79 °FClear.7 mph48%29.71 "Hg10 mi
12:30 AM79 °FClear.6 mph48%29.71 "Hg10 mi
12:00 AM82 °FPassing clouds.5 mph45%29.71 "HgN/A
11:30 PM
Sun, Aug 2
82 °FPassing clouds.3 mph45%29.71 "HgN/A
11:00 PM82 °FClear.No wind45%29.71 "Hg10 mi
Weather by CustomWeather, © 2015

See weather overviewHow to use our weather pages